Wind_Speed
28 29 30 31 32 33 34 35 36 36 37 38 38 39 39 39 40 41 42 42 42 42 41 42 42 42 42 43 43 43 43 43 43 44 44 44 44 44 44 43 43 43 44 43
28 29 29 30 32 32 33 35 35 36 37 38 38 39 39 39 40 41 42 42 43 44 43 43 43 43 43 43 44 44 44 44 44 45 45 45 45 45 45 45 44 44 44 44
29 28 29 30 31 32 33 34 35 36 37 38 39 40 39 40 40 41 42 42 43 44 44 44 44 44 44 44 45 45 46 45 45 45 45 46 46 46 46 46 46 45 45 45
29 28 29 29 30 31 32 33 34 35 36 37 39 41 38 39 40 40 40 41 41 42 43 44 44 45 45 45 45 45 46 46 46 45 46 46 47 46 46 46 47 46 46 45
29 28 29 29 29 31 31 32 33 34 36 37 37 39 38 38 39 39 39 40 40 40 41 42 43 44 44 45 45 45 46 47 46 46 46 46 46 46 47 47 47 47 47 47
29 29 29 29 29 31 31 31 32 33 35 37 36 37 37 36 36 37 38 38 39 40 41 41 42 42 43 44 44 45 46 46 46 46 47 46 47 46 47 48 48 48 48 48
29 30 29 29 29 30 30 30 31 32 34 35 33 35 35 34 34 35 36 37 38 39 40 41 41 41 42 43 44 44 45 45 46 46 47 47 47 47 48 48 48 48 49 49
28 28 28 29 29 29 29 30 31 32 33 33 32 33 32 32 32 32 33 35 37 38 39 40 40 40 41 42 43 43 44 44 45 45 46 47 48 48 49 49 49 49 50 50
27 28 27 28 27 28 28 29 29 31 32 33 33 32 31 31 31 31 32 34 35 37 37 38 39 39 40 40 41 41 42 43 44 45 46 47 48 49 49 50 50 50 50 51
26 26 26 26 26 27 28 28 29 30 31 33 33 31 30 30 31 32 33 34 34 35 36 36 37 38 39 40 41 41 42 43 44 45 45 46 47 48 49 49 50 51 51 52
25 26 25 25 25 26 26 27 29 30 31 33 33 31 30 29 30 32 32 33 33 33 34 35 36 37 38 39 40 41 41 42 43 44 45 46 46 47 48 49 49 49 49 50
25 26 26 25 26 27 27 27 28 30 30 31 33 32 29 29 29 30 31 32 32 33 34 35 35 37 38 39 40 40 41 41 42 43 44 44 45 47 48 49 49 50 50 49
24 26 26 26 26 27 27 27 28 30 31 31 30 30 28 29 29 30 31 32 32 32 34 35 36 37 38 38 39 40 40 40 41 41 42 43 44 46 47 49 49 50 50 51
24 25 25 26 26 27 27 27 28 30 30 31 30 30 28 29 30 30 30 31 31 31 31 33 35 36 37 37 38 39 39 40 40 41 41 42 43 44 46 47 48 49 50 51
25 26 25 26 26 27 27 27 28 28 29 30 29 30 29 29 30 30 30 30 30 31 31 30 32 34 35 36 37 37 38 39 39 40 41 42 43 44 44 46 47 48 49 50
25 26 26 26 26 27 28 27 28 28 29 29 30 29 28 29 29 30 30 29 30 30 30 31 31 32 33 34 35 36 37 37 38 39 40 41 42 43 44 44 46 47 47 48
23 24 25 25 26 27 27 27 27 28 27 28 29 27 28 29 29 29 30 29 29 29 30 30 30 30 31 32 33 34 35 36 37 38 39 40 41 42 43 43 43 44 46 47
22 23 24 24 24 26 24 25 26 28 27 28 28 28 28 28 29 29 30 29 29 29 29 29 29 29 30 30 31 32 33 35 36 37 38 38 39 40 41 42 43 43 44 45
22 22 23 23 24 24 23 24 25 26 26 27 27 27 27 28 28 28 29 28 28 28 28 28 28 29 29 30 31 31 32 34 35 37 37 37 38 39 39 40 41 42 42 43
21 21 22 23 23 23 22 23 25 26 25 25 27 27 27 27 27 27 28 28 27 27 27 28 28 29 29 29 30 30 31 32 34 36 36 37 37 38 38 39 39 40 41 41
20 21 21 22 24 24 22 23 24 25 25 25 26 26 27 27 26 26 26 26 26 27 27 27 28 28 28 28 29 29 30 31 32 33 35 36 36 36 37 37 38 38 38 38
21 22 22 23 24 23 23 23 24 24 25 25 25 26 26 26 26 25 26 27 27 27 27 27 28 28 28 28 28 28 29 30 31 31 32 33 34 35 36 36 36 36 37 37
22 23 23 24 24 24 24 24 24 24 25 25 25 25 25 25 26 26 26 27 27 27 28 27 27 28 28 28 28 28 28 29 29 29 30 31 31 33 33 34 34 35 35 35
21 22 23 24 23 23 24 24 24 25 25 26 26 26 25 25 25 26 26 26 26 27 27 27 27 28 28 28 28 28 28 28 28 29 29 30 30 31 32 33 33 33 34 34
21 21 21 22 22 23 24 25 25 26 26 26 27 27 26 25 25 25 25 25 25 25 26 26 27 27 27 28 28 28 28 28 28 28 29 29 29 29 30 30 30 31 31 31
21 22 22 22 22 23 23 24 24 25 25 26 26 26 26 25 25 25 25 25 24 24 25 25 26 26 26 27 27 28 28 28 28 28 29 29 30 29 29 29 29 29 29 30
Wind_Direction
248 250 252 253 253 254 254 254 254 253 253 252 252 251 249 248 248 248 248 249 248 248 248 249 250 251 251 251 252 253 253 254 254 254 255 255 256 257 258 259 259 259 259 260
250 252 254 254 254 255 255 255 255 254 254 253 253 252 250 249 249 249 249 249 249 249 249 250 251 252 252 253 253 253 254 253 254 255 255 256 256 257 258 259 259 259 260 260
253 254 255 255 255 255 256 257 257 257 256 255 255 254 252 251 250 250 251 251 251 251 252 251 252 252 253 253 254 255 254 254 255 255 255 255 256 257 257 258 259 260 261 261
253 252 254 256 257 258 258 258 259 258 257 257 257 258 253 253 252 251 251 252 252 252 253 253 254 254 253 254 254 255 255 255 255 255 255 255 255 256 257 258 258 260 261 261
253 253 255 257 257 259 260 260 260 260 259 259 258 260 257 255 253 252 252 251 252 253 254 254 255 255 254 255 255 255 256 256 255 255 256 255 255 256 256 257 258 259 259 259
252 252 254 258 259 260 260 259 259 259 259 259 259 261 259 256 254 253 253 253 253 254 255 255 255 256 256 256 255 255 255 255 255 255 256 256 256 257 257 258 258 258 258 259
252 252 254 257 259 259 259 259 259 260 260 262 261 261 261 257 255 254 254 254 254 255 256 257 257 257 258 257 257 257 256 255 255 256 257 257 257 257 258 258 259 259 259 259
253 253 254 256 258 259 258 258 260 262 264 264 263 262 261 259 257 256 255 255 256 256 257 258 258 258 258 259 259 258 257 256 256 256 257 257 257 257 257 258 259 260 260 260
255 254 254 255 256 256 256 257 260 262 265 266 265 263 261 259 258 258 257 258 258 259 259 259 258 258 259 259 259 258 257 257 256 257 257 258 258 257 257 258 258 259 260 261
257 256 256 255 253 254 255 257 259 261 265 267 266 264 264 262 261 260 259 259 260 260 259 260 259 258 258 258 258 258 258 258 258 258 259 259 259 258 258 258 259 259 261 261
258 257 257 256 253 256 257 257 258 260 264 266 267 266 267 267 265 263 262 261 261 261 260 260 259 258 259 259 259 260 260 260 259 259 260 260 260 259 259 259 260 260 261 262
259 260 259 258 257 257 258 260 262 263 264 266 268 267 268 268 268 267 265 263 263 262 261 261 261 260 260 260 260 261 261 260 260 261 261 261 261 260 260 260 261 260 261 262
260 261 260 259 260 260 260 260 261 263 264 265 267 270 269 268 269 269 268 266 266 265 263 262 262 263 262 261 261 261 261 261 261 262 262 262 262 261 261 262 262 261 262 263
260 260 262 262 262 261 261 260 261 262 263 265 268 270 269 269 270 271 271 270 268 266 265 264 263 263 263 262 263 262 261 262 262 263 264 264 264 263 263 263 263 262 262 263
261 261 261 262 262 262 261 260 261 262 265 267 268 269 269 269 270 272 273 271 269 268 267 267 266 265 265 264 264 263 263 263 263 263 264 265 265 266 266 265 264 264 264 264
261 261 262 263 263 263 262 262 263 263 265 267 268 269 269 269 271 272 272 271 270 268 267 268 268 267 267 267 266 265 264 265 265 265 265 266 267 267 267 267 266 266 266 266
262 263 264 265 264 264 264 264 264 263 264 266 267 269 269 269 270 271 272 271 270 268 267 267 268 268 269 269 268 267 266 266 267 267 267 267 267 268 268 269 269 268 267 266
263 264 266 267 265 265 268 268 267 265 265 266 267 267 267 269 269 269 270 270 270 270 268 267 268 270 271 271 270 270 269 268 269 269 270 269 269 269 269 269 270 270 269 268
264 265 268 269 269 269 268 270 269 268 267 266 267 267 268 268 268 270 271 272 272 271 270 270 271 272 272 272 272 271 271 271 272 272 272 271 271 271 271 271 270 270 269 269
267 267 269 271 273 274 275 272 269 269 268 266 266 266 267 267 268 270 271 271 271 270 270 272 274 274 274 275 274 273 273 273 273 273 273 273 273 273 273 272 271 270 269 269
269 269 271 273 275 277 277 274 273 272 272 270 269 269 268 267 268 269 269 269 269 270 271 273 275 276 276 277 277 276 275 275 275 274 274 274 274 274 273 274 273 272 271 270
271 270 271 273 276 279 277 275 275 275 274 274 273 272 271 270 269 269 270 270 270 271 272 273 275 277 277 278 279 278 278 278 278 278 277 276 276 275 275 275 274 274 273 272
272 271 272 274 276 277 275 275 275 274 275 274 274 274 272 272 270 271 272 272 272 272 273 274 275 276 277 278 279 280 280 281 281 281 280 279 279 277 277 276 275 275 274 273
274 273 275 275 274 274 275 275 276 276 277 275 275 275 272 272 271 270 272 273 273 273 273 274 275 276 277 279 279 280 281 282 282 282 283 282 281 281 280 278 277 276 275 274
276 277 277 276 275 273 274 276 276 276 277 275 274 274 273 272 271 270 271 272 273 274 274 275 276 276 277 279 279 280 281 282 282 283 284 284 284 284 282 280 279 278 276 275
275 276 274 274 275 275 274 276 278 278 278 277 274 273 272 271 270 270 270 271 272 274 275 275 276 277 278 280 280 281 281 282 283 284 284 284 285 285 283 282 280 280 278 276
Height
5690 5692 5693 5695 5697 5698 5699 5700 5702 5703 5704 5705 5707 5709 5712 5713 5715 5717 5719 5721 5723 5725 5727 5729 5731 5733 5735 5737 5739 5741 5742 5744 5745 5747 5749 5751 5752 5753 5754 5755 5756 5757 5758 5759
5683 5684 5687 5687 5688 5689 5689 5691 5692 5694 5695 5695 5697 5699 5701 5703 5705 5707 5709 5711 5713 5714 5717 5719 5721 5723 5724 5726 5728 5730 5731 5733 5734 5736 5738 5739 5741 5742 5743 5744 5745 5746 5747 5748
5675 5678 5678 5678 5679 5680 5681 5682 5684 5685 5685 5685 5686 5688 5691 5693 5694 5696 5698 5699 5701 5703 5705 5707 5709 5711 5713 5715 5717 5718 5720 5722 5723 5725 5726 5728 5730 5731 5732 5733 5734 5735 5735 5736
5667 5669 5669 5670 5671 5672 5673 5674 5674 5675 5675 5675 5676 5676 5682 5683 5684 5686 5688 5689 5691 5693 5695 5696 5698 5700 5702 5704 5705 5707 5708 5710 5711 5713 5715 5716 5718 5720 5721 5722 5723 5724 5724 5724
5659 5661 5661 5662 5663 5663 5664 5665 5665 5665 5665 5665 5666 5665 5670 5672 5673 5676 5678 5679 5681 5683 5684 5685 5687 5688 5690 5692 5694 5695 5697 5698 5700 5701 5703 5705 5706 5707 5709 5710 5711 5712 5713 5713
5651 5652 5653 5654 5655 5655 5655 5656 5655 5655 5654 5655 5657 5655 5658 5662 5664 5666 5668 5669 5671 5672 5673 5675 5676 5677 5679 5680 5682 5683 5685 5687 5688 5690 5691 5693 5694 5696 5697 5698 5699 5700 5701 5702
5643 5644 5645 5645 5646 5646 5646 5647 5646 5645 5645 5646 5648 5646 5649 5653 5654 5656 5657 5659 5660 5661 5663 5664 5665 5666 5668 5669 5670 5672 5673 5675 5676 5677 5679 5680 5682 5683 5685 5686 5687 5688 5689 5690
5634 5636 5637 5637 5638 5638 5638 5639 5639 5638 5637 5638 5638 5638 5642 5644 5645 5646 5647 5648 5649 5651 5652 5653 5654 5655 5656 5658 5659 5660 5661 5663 5664 5665 5667 5668 5669 5671 5672 5673 5674 5675 5676 5677
5626 5628 5629 5629 5629 5630 5630 5630 5631 5630 5629 5629 5629 5631 5633 5634 5636 5637 5638 5638 5639 5641 5642 5642 5644 5645 5646 5647 5648 5649 5650 5651 5652 5653 5654 5655 5656 5657 5659 5660 5661 5663 5663 5664
5618 5619 5621 5621 5621 5622 5623 5623 5622 5621 5620 5620 5621 5623 5625 5626 5627 5627 5628 5629 5630 5631 5632 5633 5633 5634 5635 5636 5636 5637 5638 5639 5640 5641 5642 5642 5643 5644 5645 5646 5648 5649 5650 5651
5611 5612 5613 5613 5614 5614 5615 5615 5614 5613 5613 5612 5612 5617 5618 5618 5618 5618 5619 5619 5620 5621 5622 5622 5623 5623 5624 5625 5625 5626 5626 5627 5628 5629 5629 5630 5630 5631 5632 5633 5634 5635 5636 5637
5603 5604 5605 5606 5606 5606 5607 5607 5607 5607 5606 5605 5604 5610 5609 5609 5609 5609 5609 5609 5610 5611 5611 5612 5612 5612 5613 5613 5614 5614 5614 5615 5616 5616 5617 5617 5618 5618 5619 5620 5621 5622 5623 5623
5595 5596 5597 5598 5600 5599 5599 5599 5598 5598 5598 5597 5597 5602 5601 5601 5600 5600 5600 5600 5600 5601 5601 5601 5601 5602 5602 5602 5603 5603 5603 5603 5604 5604 5604 5605 5605 5605 5606 5607 5607 5608 5609 5609
5588 5588 5590 5591 5590 5590 5591 5591 5590 5589 5589 5589 5590 5592 5593 5592 5591 5591 5591 5591 5591 5591 5591 5591 5591 5591 5591 5591 5591 5592 5592 5592 5592 5592 5592 5592 5592 5592 5593 5593 5594 5594 5595 5595
5580 5581 5581 5582 5582 5582 5582 5583 5582 5582 5582 5582 5583 5583 5584 5583 5582 5582 5581 5581 5581 5581 5581 5581 5581 5581 5580 5580 5580 5581 5581 5581 5581 5581 5581 5581 5580 5580 5580 5580 5580 5580 5581 5581
5572 5573 5573 5574 5574 5573 5574 5575 5574 5574 5574 5574 5574 5575 5576 5574 5573 5573 5572 5572 5572 5572 5572 5572 5572 5571 5571 5570 5570 5570 5570 5570 5570 5570 5570 5569 5569 5568 5568 5568 5567 5567 5567 5567
5565 5565 5565 5566 5566 5565 5566 5568 5567 5566 5566 5566 5565 5568 5566 5565 5565 5564 5564 5563 5563 5563 5563 5563 5563 5562 5561 5561 5560 5560 5560 5560 5559 5559 5558 5558 5557 5557 5556 5555 5555 5554 5554 5554
5558 5558 5557 5557 5558 5558 5562 5559 5558 5558 5558 5558 5557 5558 5558 5557 5556 5556 5555 5555 5554 5554 5554 5554 5553 5553 5552 5552 5551 5550 5550 5549 5548 5548 5547 5546 5545 5545 5544 5543 5543 5542 5541 5541
5551 5551 5550 5550 5549 5550 5553 5551 5549 5549 5550 5550 5549 5549 5549 5548 5547 5547 5547 5546 5546 5545 5545 5545 5545 5544 5543 5542 5541 5541 5540 5539 5538 5537 5536 5535 5534 5533 5532 5531 5530 5529 5528 5528
5544 5544 5544 5543 5542 5543 5546 5543 5541 5542 5542 5542 5541 5541 5540 5540 5540 5541 5539 5538 5537 5537 5537 5536 5536 5535 5534 5533 5532 5531 5530 5529 5527 5526 5525 5523 5522 5521 5520 5519 5518 5517 5516 5515
5538 5537 5537 5536 5535 5535 5537 5534 5533 5535 5535 5533 5532 5532 5532 5531 5532 5532 5530 5529 5529 5529 5528 5528 5527 5526 5525 5524 5523 5522 5520 5519 5517 5516 5514 5513 5511 5510 5508 5507 5506 5505 5504 5503
5531 5531 5530 5529 5528 5531 5528 5527 5527 5526 5525 5524 5524 5523 5523 5523 5523 5522 5522 5521 5520 5520 5520 5519 5518 5517 5516 5515 5514 5513 5511 5509 5508 5506 5504 5502 5500 5499 5497 5496 5495 5494 5493 5492
5524 5524 5523 5523 5524 5522 5520 5519 5518 5518 5517 5516 5516 5515 5515 5515 5514 5514 5513 5513 5512 5512 5511 5510 5510 5509 5507 5506 5505 5504 5502 5500 5499 5497 5495 5493 5490 5488 5487 5485 5484 5483 5482 5481
5517 5516 5516 5515 5515 5514 5513 5512 5511 5510 5509 5508 5508 5507 5507 5506 5506 5506 5505 5504 5504 5503 5502 5502 5501 5500 5499 5498 5496 5495 5493 5492 5490 5488 5486 5483 5481 5479 5477 5475 5474 5473 5471 5470
5511 5509 5508 5508 5508 5507 5506 5505 5503 5502 5501 5500 5499 5499 5498 5498 5498 5497 5497 5496 5496 5495 5494 5493 5492 5491 5490 5489 5488 5486 5484 5483 5481 5479 5477 5474 5472 5470 5468 5466 5464 5463 5461 5460
5504 5503 5502 5501 5501 5499 5499 5497 5496 5494 5493 5492 5491 5491 5490 5490 5490 5489 5489 5488 5488 5487 5486 5485 5484 5483 5482 5480 5479 5477 5475 5474 5472 5470 5468 5465 5463 5461 5459 5457 5455 5453 5452 5451